This demonstration page uses our WeatherBlox Daily Observations layout. Learn more.

Left ArrowRight Arrow

Hourly Observations for January 3, 2022

Temp ( °F °C ) Dew Point ( °F °C ) Humidity (%) Winds ( mph kmh ) Pressure ( in mb ) Visibility ( mi km ) Precip ( " mm )
12:53 am 00:53 Mostly Clear 19 -7.2 15 -9.4 84 84 ENE 10 17 29.93 1014 10 16 0.00 0.00
1:53 am 01:53 Partly Cloudy 15 -9.4 11 -11.7 84 84 Calm 29.94 1014 10 16 0.00 0.00
2:53 am 02:53 Clear 10 -12.2 7 -13.9 87 87 ESE 3 6 29.94 1014 10 16 0.00 0.00
3:53 am 03:53 Clear 9 -12.8 6 -14.4 88 88 Calm 29.93 1014 10 16 0.00 0.00
4:53 am 04:53 Clear 11 -11.7 9 -12.8 92 92 Calm 29.91 1013 10 16 0.00 0.00
5:53 am 05:53 Clear 11 -11.7 8 -13.3 88 88 E 7 11 29.89 1012 10 16 0.00 0.00
6:53 am 06:53 Clear 12 -11.1 9 -12.8 87 87 E 9 15 29.87 1012 10 16 0.00 0.00
7:53 am 07:53 Clear 13 -10.6 10 -12.2 88 88 E 7 11 29.83 1010 10 16 0.00 0.00
8:53 am 08:53 Sunny 13 -10.6 10 -12.2 88 88 E 12 19 29.82 1010 10 16 0.00 0.00
9:53 am 09:53 Sunny 15 -9.4 11 -11.7 84 84 ENE 8 13 29.80 1009 10 16 0.00 0.00
10:53 am 10:53 Sunny 16 -8.9 12 -11.1 84 84 E 9 15 29.79 1009 10 16 0.00 0.00
11:53 am 11:53 Sunny 18 -7.8 13 -10.6 81 81 E 10 17 29.75 1008 10 16 0.00 0.00
12:53 pm 12:53 Sunny 19 -7.2 13 -10.6 77 77 E 9 15 29.72 1006 10 16 0.00 0.00
1:53 pm 13:53 Sunny 19 -7.2 13 -10.6 77 77 ENE 7 11 29.70 1006 10 16 0.00 0.00
2:53 pm 14:53 Sunny 20 -6.7 13 -10.6 74 74 NE 6 9 29.71 1006 10 16 0.00 0.00
3:53 pm 15:53 Sunny 19 -7.2 13 -10.6 77 77 E 6 9 29.70 1006 10 16 0.00 0.00
4:53 pm 16:53 Clear 16 -8.9 11 -11.7 80 80 ENE 6 9 29.68 1005 10 16 0.00 0.00
7:53 pm 19:53 Mostly Cloudy 7 -13.9 3 -16.1 84 84 NW 14 22 29.75 1007 10 16 0.00 0.00
8:15 pm 20:15 Cloudy 7 -13.9 2 -16.7 80 80 NNW 18 30 29.86 1011 10 16 0.00 0.00
8:49 pm 20:49 Cloudy 5 -15 0 -18 78 78 NW 14 22 29.89 1012 10 16 0.00 0.00
8:53 pm 20:53 Cloudy 5 -15 0 -17.8 79 79 NW 14 22 29.77 1008 10 16 0.00 0.00
9:02 pm 21:02 Cloudy 5 -15 0 -17.8 79 79 NW 16 26 29.90 1012 10 16 0.00 0.00
9:49 pm 21:49 Cloudy 3 -16 -2 -19 78 78 NW 16 26 29.95 1014 10 16 0.00 0.00
9:53 pm 21:53 Cloudy 4 -15.6 -2 -18.9 76 76 NW 16 26 29.81 1010 10 16 0.00 0.00
10:45 pm 22:45 Cloudy 2 -16.7 -5 -20.6 72 72 NW 22 35 29.97 1015 10 16 0.00 0.00
10:53 pm 22:53 Cloudy 1 -17.2 -5 -20.6 75 75 NW 20 31 29.85 1011 10 16 0.00 0.00
11:38 pm 23:38 Cloudy 1 -17.2 -6 -21.1 72 72 WNW 16 26 30.01 1016 10 16 0.00 0.00
11:53 pm 23:53 Cloudy 1 -17.2 -6 -21.1 72 72 WNW 17 28 29.89 1012 10 16 0.00 0.00

Powered by AerisWeather